Besuchen Sie unsere anderen Wetter Stationen:

Template documentation
and downloads

And another site


Select another period ( hide this area )

Einheiten Zeitraum Custom range Directly to
metrisch Englisch Beide
Tägliche Wöchentliche Monatliche Jährlich
use both date-selectors for a custom range
previous Tag
With this date

WeatherUnderground graphs for this period ( click here ) Loading the graph can take up to a minute!


Tägliche Zusammenfassung für Mittwoch 04 August 2021
Zeit Temp. ( °C ) Dew pt. ( °C ) Wind ( km/h ) von Windböen ( km/h ) Luftdruck ( hPa ) Humid.( % ) Rainrate ( cm ) Solar ( W/m2 )
Hoch18,6 14,3 17,0 SSW ( 627/1455 ) 19,0 1014,1 93 - 1067
Durchchnittswerte15,1 12,9 6,6 SSW #83/220 7,2 1013,3 87 - 158 #140/220
Wenig13,1 11,8 -   0,0 1011,9 71 -  
Tägliche Tabular details for Mittwoch 04 August 2021
Zeit Temp. ( °C ) Dew pt. ( °C ) Wind ( km/h ) von Windböen ( km/h ) Luftdruck ( hPa ) Humid.( % ) Rainrate ( cm ) Solar ( W/m2 )
00:04 14,2 12,3 15,0 SSW 15,0 1013,7 88 - -
00:09 14,2 12,3 7,0 SW 15,0 1013,7 88 - -
00:14 14,1 12,2 10,0 SW 8,0 1013,7 88 - -
00:19 14,1 12,1 14,0 SW 10,0 1013,7 88 - -
00:24 14,0 12,1 11,0 SW 13,0 1013,7 88 - -
00:29 14,0 12,1 14,0 SSW 10,0 1013,6 88 - -
00:34 14,0 12,1 12,0 SW 13,0 1013,6 88 - -
00:39 13,9 12,2 14,0 SW 11,0 1013,6 89 - -
00:44 13,9 12,2 15,0 SW 13,0 1013,6 89 - -
00:49 13,9 12,2 12,0 SW 15,0 1013,6 89 - -
00:54 13,9 12,2 17,0 SW 12,0 1013,5 89 - -
00:59 13,9 12,2 17,0 SW 16,0 1013,6 89 - -
01:04 13,9 12,2 15,0 SW 16,0 1013,6 89 - -
01:09 13,9 12,1 15,0 SSW 15,0 1013,6 89 - -
01:14 13,9 12,1 14,0 SSW 13,0 1013,6 89 - -
01:19 13,9 12,1 17,0 SW 13,0 1013,6 89 - -
01:24 13,9 12,1 15,0 SSW 16,0 1013,6 89 - -
01:29 13,8 12,2 10,0 SW 11,0 1013,6 90 - -
01:34 13,7 12,1 9,0 SSW 7,0 1013,6 90 - -
01:39 13,8 12,2 9,0 SW 10,0 1013,6 90 - -
01:44 13,8 12,2 12,0 SSW 10,0 1013,6 90 - -
01:49 13,7 12,1 9,0 SSW 11,0 1013,5 90 - -
01:54 13,7 12,1 9,0 SSW 8,0 1013,5 90 - -
01:59 13,7 12,1 12,0 SW 10,0 1013,5 90 - -
02:04 13,7 12,1 14,0 SW 11,0 1013,6 90 - -
02:09 13,7 12,1 11,0 SW 13,0 1013,6 90 - -
02:14 13,7 12,1 10,0 SSW 10,0 1013,6 90 - -
02:19 13,7 12,1 15,0 SW 11,0 1013,6 90 - -
02:24 13,7 12,1 12,0 SSW 8,0 1013,7 90 - -
02:29 13,6 12,0 10,0 SW 11,0 1013,7 90 - -
02:34 13,6 12,0 10,0 SSW 10,0 1013,7 90 - -
02:39 13,6 12,0 14,0 SSW 10,0 1013,6 90 - -
02:44 13,6 12,2 15,0 SSW 13,0 1013,5 91 - -
02:49 13,6 12,0 12,0 SSW 15,0 1013,5 90 - -
02:54 13,6 11,9 12,0 SW 11,0 1013,5 90 - -
02:59 13,6 11,9 12,0 SW 11,0 1013,6 90 - -
03:04 13,5 11,9 6,0 SW 11,0 1013,6 90 - -
03:09 13,6 12,1 4,0 SW 5,0 1013,6 91 - -
03:14 13,5 12,1 6,0 SW 3,0 1013,6 91 - -
03:19 13,6 11,9 6,0 SW 5,0 1013,5 90 - -
03:24 13,6 11,9 7,0 SW 5,0 1013,4 90 - -
03:29 13,4 12,0 7,0 SSW 8,0 1013,4 91 - -
03:34 13,4 11,9 2,0 SSW 5,0 1013,4 91 - -
03:39 13,4 11,9 4,0 SSW 2,0 1013,4 91 - -
03:44 13,3 11,9 6,0 WSW 3,0 1013,4 91 - -
03:49 13,4 11,9 6,0 Westen 4,0 1013,3 91 - -
03:54 13,4 11,9 6,0 Westen 5,0 1013,3 91 - -
03:59 13,3 11,9 6,0 WSW 5,0 1013,3 91 - -
04:04 13,3 11,9 7,0 SSW 6,0 1013,3 91 - -
04:09 13,3 11,9 7,0 SSW 8,0 1013,3 91 - -
04:14 13,3 11,8 7,0 SSW 8,0 1013,3 91 - -
04:19 13,3 12,0 9,0 SSW 8,0 1013,4 92 - -
04:24 13,3 12,0 7,0 SSW 10,0 1013,4 92 - -
04:29 13,3 12,0 6,0 SSW 8,0 1013,5 92 - -
04:34 13,3 12,0 6,0 SSW 5,0 1013,5 92 - -
04:39 13,3 12,0 4,0 SSW 5,0 1013,4 92 - -
04:44 13,3 12,0   Windstille 3,0 1013,4 92 - -
04:49 13,3 12,0   Windstille   1013,4 92 - -
04:54 13,2 11,9   Windstille   1013,4 92 - -
04:59 13,1 11,8   Windstille   1013,5 92 - -
05:04 13,1 11,9   Windstille   1013,4 93 - -
05:09 13,1 12,0 2,0 SSW   1013,5 93 - -
05:14 13,2 12,1 3,0 SSW 2,0 1013,5 93 - -
05:19 13,3 12,2   Windstille   1013,5 93 - -
05:24 13,3 12,0   Windstille   1013,6 92 - -
05:29 13,3 12,1 3,0 SSW 1,0 1013,6 92 - -
05:34 13,4 12,1 4,0 SSW 3,0 1013,5 92 - -
05:39 13,4 12,2   Windstille 3,0 1013,5 92 - -
05:44 13,4 12,2   Windstille   1013,5 92 - -
05:49 13,6 12,4   Windstille   1013,5 93 - -
05:54 13,6 12,4 2,0 SSW 1,0 1013,5 93 - -
05:59 13,6 12,3 2,0 SSW 2,0 1013,5 92 - -
06:04 13,5 12,2   Windstille   1013,6 92 - -
06:09 13,4 12,1   Windstille   1013,6 92 - 5
06:14 13,4 12,1   Windstille   1013,6 92 - 9
06:19 13,4 12,1 2,0 SSW 1,0 1013,6 92 - 11
06:24 13,4 12,1 4,0 SSW 2,0 1013,6 92 - 11
06:29 13,4 12,3 6,0 SSW 4,0 1013,6 93 - 12
06:34 13,4 12,2 4,0 SSW 5,0 1013,7 92 - 16
06:39 13,4 12,3 4,0 SSW 3,0 1013,6 93 - 19
06:44 13,4 12,3 4,0 SSW 3,0 1013,6 93 - 19
06:49 13,5 12,4 4,0 SSW 3,0 1013,6 93 - 23
06:54 13,6 12,5 4,0 SSW 2,0 1013,6 93 - 32
06:59 13,7 12,6 5,0 SSW 3,0 1013,6 93 - 37
07:04 13,7 12,4 7,0 SSW 5,0 1013,7 92 - 44
07:09 13,8 12,5 7,0 SSW 8,0 1013,7 92 - 47
07:14 13,8 12,5 7,0 SSW 8,0 1013,7 92 - 47
07:19 13,8 12,6 6,0 SSW 8,0 1013,7 92 - 44
07:24 13,9 12,6 7,0 SSW 6,0 1013,7 92 - 40
07:29 13,9 12,7 9,0 SSW 8,0 1013,7 92 - 58
07:34 14,0 12,7 9,0 SSW 10,0 1013,7 92 - 60
07:39 14,1 12,8 9,0 SSW 10,0 1013,7 92 - 65
07:44 14,2 12,7 7,0 SSW 8,0 1013,8 91 - 56
07:49 14,2 12,8 6,0 SSW 8,0 1013,8 91 - 60
07:54 14,2 12,8 7,0 SSW 6,0 1013,9 91 - 72
07:59 14,3 12,8 6,0 SSW 8,0 1013,8 91 - 83
08:04 14,3 12,9 7,0 SSW 5,0 1013,8 91 - 95
08:09 14,4 13,0 8,0 SSW 7,0 1013,8 91 - 95
08:14 14,4 13,0 9,0 Süden 10,0 1013,9 91 - 111
08:19 14,6 12,9 7,0 SSW 8,0 1013,8 90 - 132
08:24 14,7 13,2 9,0 SSW 8,0 1013,9 91 - 186
08:29 14,8 13,0 9,0 SSW 10,0 1013,8 89 - 176
08:34 14,9 13,1 10,0 SSW 10,0 1013,9 89 - 179
08:39 14,9 13,2 10,0 SSW 10,0 1013,9 89 - 153
08:44 14,8 13,1 10,0 SSW 10,0 1013,9 89 - 102
08:49 14,8 13,0 7,0 SSW 10,0 1014,0 89 - 114
08:54 14,8 13,1 12,0 SSW 9,0 1014,0 89 - 120
08:59 14,8 13,0 11,0 SSW 11,0 1014,1 89 - 120
09:04 14,8 13,0 12,0 SW 10,0 1014,1 89 - 151
09:09 14,9 13,1 9,0 SSW 11,0 1014,1 89 - 151
09:14 15,0 13,2 12,0 SSW 10,0 1014,1 89 - 151
09:19 14,9 13,0 9,0 SW 11,0 1014,1 88 - 193
09:24 15,1 13,1 9,0 SW 10,0 1014,0 88 - 193
09:29 15,1 13,0 9,0 SW 10,0 1014,0 88 - 172
09:34 15,1 13,1 9,0 SW 10,0 1014,1 88 - 169
09:39 15,2 13,1 6,0 SW 10,0 1014,0 88 - 206
09:44 15,2 13,1 10,0 Süden 9,0 1014,0 87 - 200
09:49 15,3 12,9 6,0 SSW 10,0 1014,1 86 - 200
09:54 15,6 13,5 6,0 WNW 5,0 1014,0 88 - 283
09:59 15,7 13,4 8,0 WNW 5,0 1014,1 87 - 283
10:04 15,8 13,5 10,0 WNW 10,0 1014,1 86 - 234
10:09 15,8 13,2 9,0 SW 10,0 1014,1 86 - 221
10:14 15,7 13,3 6,0 SW 10,0 1014,1 86 - 202
10:19 15,8 13,6 7,0 WSW 5,0 1014,0 87 - 288
10:24 16,1 13,6 6,0 Westen 8,0 1014,0 86 - 322
10:29 16,2 13,4 7,0 WSW 5,0 1013,9 84 - 397
10:34 16,1 13,0 5,0 SW 8,0 1013,8 82 - 327
10:39 16,4 13,5 7,0 SW 5,0 1013,9 83 - 406
10:44 16,4 13,5 7,0 SSW 8,0 1013,9 83 - 237
10:49 16,2 13,4 9,0 WSW 8,0 1013,8 84 - 262
10:54 16,2 13,3 9,0 SSW 10,0 1013,8 83 - 311
10:59 16,1 13,2 9,0 SSW 10,0 1013,8 83 - 311
11:02 16,1 13,2 9,0 SSW 10,0 1013,8 83 - 311
13:15 16,9 13,1 3,0 WSW 8,0 1013,7 78 - 281
13:20 17,0 13,5 2,0 WNW 6,0 1013,7 80 - 323
13:25 16,9 13,4 3,0 WNW 6,0 1013,8 80 - 413
13:30 16,8 12,8 3,0 NW 6,0 1013,7 77 - 260
13:35 17,0 13,7 3,0 NW 5,0 1013,6 81 - 232
13:40 16,8 12,8 2,0 NW 6,0 1013,7 77 - 117
13:45 16,8 13,1 3,0 NW 5,0 1013,6 79 - 89
13:50 16,8 12,9 3,0 NNO 5,0 1013,5 78 - 97
14:00 16,6 13,2 3,0 SSW 6,0 1013,6 80 - 183
14:05 16,8 13,2 5,0 SSW 10,0 1013,7 79 - 281
14:10 17,5 14,0 8,0 Süden 11,0 1013,6 80 - 1067
14:15 17,7 13,4 10,0 Süden 19,0 1013,6 76 - 377
14:20 17,3 12,8 10,0 Süden 16,0 1013,6 75 - 339
14:25 17,1 12,6 11,0 SSW 15,0 1013,5 75 - 283
14:35 17,1 13,0 10,0 SSW 11,0 1013,4 77 - 278
14:45 16,9 13,0 8,0 SSW 13,0 1013,6 78 - 288
14:50 16,9 12,9 8,0 SSW 10,0 1013,5 77 - 378
15:00 17,9 13,8 2,0 SW 13,0 1013,0 77 - 315
15:05 18,1 13,4 10,0 SW 15,0 1013,1 74 - 315
15:10 18,6 13,7 10,0 Süden 15,0 1013,0 73 - 872
15:15 18,5 13,6 8,0 Süden 15,0 1012,9 73 - 802
15:20 18,5 13,2 10,0 Süden 11,0 1012,9 71 - 930
15:25 18,2 12,8 8,0 SSW 13,0 1012,8 71 - 331
15:35 18,0 13,1 8,0 SSW 10,0 1012,9 73 - 248
15:40 18,0 13,1 5,0 SSW 13,0 1012,8 73 - 264
15:45 18,1 13,6 3,0 SSW 10,0 1012,7 75 - 220
15:50 17,9 12,8 3,0 SSW 8,0 1012,8 72 - 153
16:00 17,8 12,9 3,0 SSW 5,0 1012,7 73 - 155
16:15 17,3 13,4 8,0 NNW 15,0 1012,7 78 - 86
16:25 17,2 13,6 8,0 WNW 10,0 1012,8 79 - 127
16:30 17,2 13,6 8,0 NNW 8,0 1012,8 79 - 95
16:35 17,2 13,5 5,0 Norden 13,0 1012,8 79 - 64
16:40 16,9 13,4 10,0 Norden 13,0 1012,8 80 - 56
16:45 16,9 13,6 5,0 Norden 13,0 1012,7 81 - 53
16:50 16,8 13,7 5,0 Norden 8,0 1012,7 82 - 44
16:55 16,8 13,7 8,0 NNO 8,0 1012,7 82 - 44
17:00 16,7 13,6 5,0 NNO 8,0 1012,7 82 - 49
17:05 16,6 13,8 5,0 NNO 8,0 1012,8 84 - 51
17:10 16,5 13,8 8,0 NNO 8,0 1012,7 84 - 51
17:29 16,3 13,8 5,0 NNO 13,0 1012,7 86 - 100
17:34 16,3 14,2 10,0 NNO 13,0 1012,7 90 - 118
17:39 16,3 14,1 2,0 NNO 3,0 1012,5 87 - 109
17:44 16,3 14,2 4,0 NNO 2,0 1012,5 87 - 116
17:49 16,4 14,1 6,0 NNO 4,0 1012,5 86 - 114
17:54 16,4 14,1 4,0 NNO 5,0 1012,5 86 - 111
17:59 16,4 14,1 2,0 NNO 3,0 1012,5 86 - 113
18:04 16,6 14,2 4,0 NNO 3,0 1012,5 86 - 107
18:09 16,6 14,2 6,0 NNO 4,0 1012,4 86 - 107
18:14 16,4 14,1 4,0 NNO 5,0 1012,3 86 - 105
18:19 16,5 14,2 4,0 NNO 3,0 1012,2 86 - 95
18:24 16,3 14,0 4,0 NNO 3,0 1012,2 86 - 97
18:29 16,3 14,0 4,0 NNO 3,0 1012,1 86 - 91
18:34 16,3 14,1 5,0 NNO 3,0 1012,1 87 - 90
18:37 16,2 14,1 6,0 NNO 3,0 1012,1 87 - 83
18:59 16,0 14,0 6,0 NNO 5,0 1012,2 88 - 58
19:04 16,1 14,0 4,0 NNO 5,0 1012,2 88 - 58
19:09 16,0 14,0 4,0 NNO 3,0 1012,2 88 - 60
19:14 16,1 14,1 4,0 NNO 3,0 1012,1 88 - 62
19:19 16,0 14,0 4,0 NNO 3,0 1012,0 88 - 60
19:24 15,9 14,1 4,0 NNO 3,0 1012,0 89 - 56
19:29 15,9 14,1 4,0 NNO 3,0 1011,9 89 - 53
19:34 15,9 14,1 4,0 NNO 3,0 1012,0 89 - 54
19:39 15,9 14,1 4,0 NNO 2,0 1012,0 89 - 56
19:44 15,9 14,3 4,0 NNO 3,0 1012,0 90 - 62
19:49 16,0 14,2 4,0 NNO 3,0 1012,0 89 - 70
19:54 16,1 14,2 2,0 NNO 3,0 1012,0 89 - 84
19:59 16,2 14,2 4,0 NNO 2,0 1012,0 88 - 84
20:04 16,2 14,3 4,0 NNO 3,0 1012,1 89 - 86
20:09 16,2 14,2 4,0 NNO 1,0 1012,1 88 - 79
20:14 16,2 14,2 2,0 NNO 2,0 1012,2 88 - 72
20:19 16,2 14,3 2,0 NNO 2,0 1012,1 89 - 65
20:24 16,2 14,2   Windstille 2,0 1012,2 88 - 56
20:29 16,2 14,3   Windstille   1012,2 89 - 40
20:34 16,1 14,2 2,0 NNO 1,0 1012,1 89 - 35
20:39 15,9 14,3 2,0 NNO 2,0 1012,1 90 - 26
20:44 15,9 14,1   Windstille 2,0 1012,1 90 - 19
20:49 15,7 14,1 2,0 NNO 2,0 1012,1 90 - 12
20:54 15,6 14,0 4,0 NNO 2,0 1012,0 91 - 7
20:59 15,4 14,0 4,0 NNO 3,0 1012,1 91 - 7
21:04 15,2 13,8 4,0 NNO 3,0 1012,1 91 - 5
21:09 15,0 13,4 6,0 NNO 5,0 1012,1 90 - -
21:14 14,8 13,4 7,0 NW 5,0 1012,2 91 - -
21:19 14,8 13,3 7,0 WNW 8,0 1012,2 91 - -
21:24 14,8 13,3 7,0 WNW 8,0 1012,1 91 - -
21:29 14,7 13,3 6,0 WNW 5,0 1012,2 92 - -
21:30 14,4 13,1 2,0 WNW 5,0 1012,2 92 - -
21:39 14,3 13,0 4,0 NW 3,0 1012,3 92 - -
Tägliche Zusammenfassung für Mittwoch 04 August 2021
Zeit Temp. ( °C ) Dew pt. ( °C ) Wind ( km/h ) von Windböen ( km/h ) Luftdruck ( hPa ) Humid.( % ) Rainrate ( cm ) Solar ( W/m2 )
Hoch18,6 14,3 17,0 SSW ( 627/1455 ) 19,0 1014,1 93 - 1067
Durchchnittswerte15,1 12,9 6,6 SSW #83/220 7,2 1013,3 87 - 158 #140/220
Wenig13,1 11,8 -   0,0 1011,9 71 -  
Tägliche Tabular details for Mittwoch 04 August 2021
Zeit Temp. ( °C ) Dew pt. ( °C ) Wind ( km/h ) von Windböen ( km/h ) Luftdruck ( hPa ) Humid.( % ) Rainrate ( cm ) Solar ( W/m2 )
00:04 14,2 12,3 15,0 SSW 15,0 1013,7 88 - -
00:09 14,2 12,3 7,0 SW 15,0 1013,7 88 - -
00:14 14,1 12,2 10,0 SW 8,0 1013,7 88 - -
00:19 14,1 12,1 14,0 SW 10,0 1013,7 88 - -
00:24 14,0 12,1 11,0 SW 13,0 1013,7 88 - -
00:29 14,0 12,1 14,0 SSW 10,0 1013,6 88 - -
00:34 14,0 12,1 12,0 SW 13,0 1013,6 88 - -
00:39 13,9 12,2 14,0 SW 11,0 1013,6 89 - -
00:44 13,9 12,2 15,0 SW 13,0 1013,6 89 - -
00:49 13,9 12,2 12,0 SW 15,0 1013,6 89 - -
00:54 13,9 12,2 17,0 SW 12,0 1013,5 89 - -
00:59 13,9 12,2 17,0 SW 16,0 1013,6 89 - -
01:04 13,9 12,2 15,0 SW 16,0 1013,6 89 - -
01:09 13,9 12,1 15,0 SSW 15,0 1013,6 89 - -
01:14 13,9 12,1 14,0 SSW 13,0 1013,6 89 - -
01:19 13,9 12,1 17,0 SW 13,0 1013,6 89 - -
01:24 13,9 12,1 15,0 SSW 16,0 1013,6 89 - -
01:29 13,8 12,2 10,0 SW 11,0 1013,6 90 - -
01:34 13,7 12,1 9,0 SSW 7,0 1013,6 90 - -
01:39 13,8 12,2 9,0 SW 10,0 1013,6 90 - -
01:44 13,8 12,2 12,0 SSW 10,0 1013,6 90 - -
01:49 13,7 12,1 9,0 SSW 11,0 1013,5 90 - -
01:54 13,7 12,1 9,0 SSW 8,0 1013,5 90 - -
01:59 13,7 12,1 12,0 SW 10,0 1013,5 90 - -
02:04 13,7 12,1 14,0 SW 11,0 1013,6 90 - -
02:09 13,7 12,1 11,0 SW 13,0 1013,6 90 - -
02:14 13,7 12,1 10,0 SSW 10,0 1013,6 90 - -
02:19 13,7 12,1 15,0 SW 11,0 1013,6 90 - -
02:24 13,7 12,1 12,0 SSW 8,0 1013,7 90 - -
02:29 13,6 12,0 10,0 SW 11,0 1013,7 90 - -
02:34 13,6 12,0 10,0 SSW 10,0 1013,7 90 - -
02:39 13,6 12,0 14,0 SSW 10,0 1013,6 90 - -
02:44 13,6 12,2 15,0 SSW 13,0 1013,5 91 - -
02:49 13,6 12,0 12,0 SSW 15,0 1013,5 90 - -
02:54 13,6 11,9 12,0 SW 11,0 1013,5 90 - -
02:59 13,6 11,9 12,0 SW 11,0 1013,6 90 - -
03:04 13,5 11,9 6,0 SW 11,0 1013,6 90 - -
03:09 13,6 12,1 4,0 SW 5,0 1013,6 91 - -
03:14 13,5 12,1 6,0 SW 3,0 1013,6 91 - -
03:19 13,6 11,9 6,0 SW 5,0 1013,5 90 - -
03:24 13,6 11,9 7,0 SW 5,0 1013,4 90 - -
03:29 13,4 12,0 7,0 SSW 8,0 1013,4 91 - -
03:34 13,4 11,9 2,0 SSW 5,0 1013,4 91 - -
03:39 13,4 11,9 4,0 SSW 2,0 1013,4 91 - -
03:44 13,3 11,9 6,0 WSW 3,0 1013,4 91 - -
03:49 13,4 11,9 6,0 Westen 4,0 1013,3 91 - -
03:54 13,4 11,9 6,0 Westen 5,0 1013,3 91 - -
03:59 13,3 11,9 6,0 WSW 5,0 1013,3 91 - -
04:04 13,3 11,9 7,0 SSW 6,0 1013,3 91 - -
04:09 13,3 11,9 7,0 SSW 8,0 1013,3 91 - -
04:14 13,3 11,8 7,0 SSW 8,0 1013,3 91 - -
04:19 13,3 12,0 9,0 SSW 8,0 1013,4 92 - -
04:24 13,3 12,0 7,0 SSW 10,0 1013,4 92 - -
04:29 13,3 12,0 6,0 SSW 8,0 1013,5 92 - -
04:34 13,3 12,0 6,0 SSW 5,0 1013,5 92 - -
04:39 13,3 12,0 4,0 SSW 5,0 1013,4 92 - -
04:44 13,3 12,0   Windstille 3,0 1013,4 92 - -
04:49 13,3 12,0   Windstille   1013,4 92 - -
04:54 13,2 11,9   Windstille   1013,4 92 - -
04:59 13,1 11,8   Windstille   1013,5 92 - -
05:04 13,1 11,9   Windstille   1013,4 93 - -
05:09 13,1 12,0 2,0 SSW   1013,5 93 - -
05:14 13,2 12,1 3,0 SSW 2,0 1013,5 93 - -
05:19 13,3 12,2   Windstille   1013,5 93 - -
05:24 13,3 12,0   Windstille   1013,6 92 - -
05:29 13,3 12,1 3,0 SSW 1,0 1013,6 92 - -
05:34 13,4 12,1 4,0 SSW 3,0 1013,5 92 - -
05:39 13,4 12,2   Windstille 3,0 1013,5 92 - -
05:44 13,4 12,2   Windstille   1013,5 92 - -
05:49 13,6 12,4   Windstille   1013,5 93 - -
05:54 13,6 12,4 2,0 SSW 1,0 1013,5 93 - -
05:59 13,6 12,3 2,0 SSW 2,0 1013,5 92 - -
06:04 13,5 12,2   Windstille   1013,6 92 - -
06:09 13,4 12,1   Windstille   1013,6 92 - 5
06:14 13,4 12,1   Windstille   1013,6 92 - 9
06:19 13,4 12,1 2,0 SSW 1,0 1013,6 92 - 11
06:24 13,4 12,1 4,0 SSW 2,0 1013,6 92 - 11
06:29 13,4 12,3 6,0 SSW 4,0 1013,6 93 - 12
06:34 13,4 12,2 4,0 SSW 5,0 1013,7 92 - 16
06:39 13,4 12,3 4,0 SSW 3,0 1013,6 93 - 19
06:44 13,4 12,3 4,0 SSW 3,0 1013,6 93 - 19
06:49 13,5 12,4 4,0 SSW 3,0 1013,6 93 - 23
06:54 13,6 12,5 4,0 SSW 2,0 1013,6 93 - 32
06:59 13,7 12,6 5,0 SSW 3,0 1013,6 93 - 37
07:04 13,7 12,4 7,0 SSW 5,0 1013,7 92 - 44
07:09 13,8 12,5 7,0 SSW 8,0 1013,7 92 - 47
07:14 13,8 12,5 7,0 SSW 8,0 1013,7 92 - 47
07:19 13,8 12,6 6,0 SSW 8,0 1013,7 92 - 44
07:24 13,9 12,6 7,0 SSW 6,0 1013,7 92 - 40
07:29 13,9 12,7 9,0 SSW 8,0 1013,7 92 - 58
07:34 14,0 12,7 9,0 SSW 10,0 1013,7 92 - 60
07:39 14,1 12,8 9,0 SSW 10,0 1013,7 92 - 65
07:44 14,2 12,7 7,0 SSW 8,0 1013,8 91 - 56
07:49 14,2 12,8 6,0 SSW 8,0 1013,8 91 - 60
07:54 14,2 12,8 7,0 SSW 6,0 1013,9 91 - 72
07:59 14,3 12,8 6,0 SSW 8,0 1013,8 91 - 83
08:04 14,3 12,9 7,0 SSW 5,0 1013,8 91 - 95
08:09 14,4 13,0 8,0 SSW 7,0 1013,8 91 - 95
08:14 14,4 13,0 9,0 Süden 10,0 1013,9 91 - 111
08:19 14,6 12,9 7,0 SSW 8,0 1013,8 90 - 132
08:24 14,7 13,2 9,0 SSW 8,0 1013,9 91 - 186
08:29 14,8 13,0 9,0 SSW 10,0 1013,8 89 - 176
08:34 14,9 13,1 10,0 SSW 10,0 1013,9 89 - 179
08:39 14,9 13,2 10,0 SSW 10,0 1013,9 89 - 153
08:44 14,8 13,1 10,0 SSW 10,0 1013,9 89 - 102
08:49 14,8 13,0 7,0 SSW 10,0 1014,0 89 - 114
08:54 14,8 13,1 12,0 SSW 9,0 1014,0 89 - 120
08:59 14,8 13,0 11,0 SSW 11,0 1014,1 89 - 120
09:04 14,8 13,0 12,0 SW 10,0 1014,1 89 - 151
09:09 14,9 13,1 9,0 SSW 11,0 1014,1 89 - 151
09:14 15,0 13,2 12,0 SSW 10,0 1014,1 89 - 151
09:19 14,9 13,0 9,0 SW 11,0 1014,1 88 - 193
09:24 15,1 13,1 9,0 SW 10,0 1014,0 88 - 193
09:29 15,1 13,0 9,0 SW 10,0 1014,0 88 - 172
09:34 15,1 13,1 9,0 SW 10,0 1014,1 88 - 169
09:39 15,2 13,1 6,0 SW 10,0 1014,0 88 - 206
09:44 15,2 13,1 10,0 Süden 9,0 1014,0 87 - 200
09:49 15,3 12,9 6,0 SSW 10,0 1014,1 86 - 200
09:54 15,6 13,5 6,0 WNW 5,0 1014,0 88 - 283
09:59 15,7 13,4 8,0 WNW 5,0 1014,1 87 - 283
10:04 15,8 13,5 10,0 WNW 10,0 1014,1 86 - 234
10:09 15,8 13,2 9,0 SW 10,0 1014,1 86 - 221
10:14 15,7 13,3 6,0 SW 10,0 1014,1 86 - 202
10:19 15,8 13,6 7,0 WSW 5,0 1014,0 87 - 288
10:24 16,1 13,6 6,0 Westen 8,0 1014,0 86 - 322
10:29 16,2 13,4 7,0 WSW 5,0 1013,9 84 - 397
10:34 16,1 13,0 5,0 SW 8,0 1013,8 82 - 327
10:39 16,4 13,5 7,0 SW 5,0 1013,9 83 - 406
10:44 16,4 13,5 7,0 SSW 8,0 1013,9 83 - 237
10:49 16,2 13,4 9,0 WSW 8,0 1013,8 84 - 262
10:54 16,2 13,3 9,0 SSW 10,0 1013,8 83 - 311
10:59 16,1 13,2 9,0 SSW 10,0 1013,8 83 - 311
11:02 16,1 13,2 9,0 SSW 10,0 1013,8 83 - 311
13:15 16,9 13,1 3,0 WSW 8,0 1013,7 78 - 281
13:20 17,0 13,5 2,0 WNW 6,0 1013,7 80 - 323
13:25 16,9 13,4 3,0 WNW 6,0 1013,8 80 - 413
13:30 16,8 12,8 3,0 NW 6,0 1013,7 77 - 260
13:35 17,0 13,7 3,0 NW 5,0 1013,6 81 - 232
13:40 16,8 12,8 2,0 NW 6,0 1013,7 77 - 117
13:45 16,8 13,1 3,0 NW 5,0 1013,6 79 - 89
13:50 16,8 12,9 3,0 NNO 5,0 1013,5 78 - 97
14:00 16,6 13,2 3,0 SSW 6,0 1013,6 80 - 183
14:05 16,8 13,2 5,0 SSW 10,0 1013,7 79 - 281
14:10 17,5 14,0 8,0 Süden 11,0 1013,6 80 - 1067
14:15 17,7 13,4 10,0 Süden 19,0 1013,6 76 - 377
14:20 17,3 12,8 10,0 Süden 16,0 1013,6 75 - 339
14:25 17,1 12,6 11,0 SSW 15,0 1013,5 75 - 283
14:35 17,1 13,0 10,0 SSW 11,0 1013,4 77 - 278
14:45 16,9 13,0 8,0 SSW 13,0 1013,6 78 - 288
14:50 16,9 12,9 8,0 SSW 10,0 1013,5 77 - 378
15:00 17,9 13,8 2,0 SW 13,0 1013,0 77 - 315
15:05 18,1 13,4 10,0 SW 15,0 1013,1 74 - 315
15:10 18,6 13,7 10,0 Süden 15,0 1013,0 73 - 872
15:15 18,5 13,6 8,0 Süden 15,0 1012,9 73 - 802
15:20 18,5 13,2 10,0 Süden 11,0 1012,9 71 - 930
15:25 18,2 12,8 8,0 SSW 13,0 1012,8 71 - 331
15:35 18,0 13,1 8,0 SSW 10,0 1012,9 73 - 248
15:40 18,0 13,1 5,0 SSW 13,0 1012,8 73 - 264
15:45 18,1 13,6 3,0 SSW 10,0 1012,7 75 - 220
15:50 17,9 12,8 3,0 SSW 8,0 1012,8 72 - 153
16:00 17,8 12,9 3,0 SSW 5,0 1012,7 73 - 155
16:15 17,3 13,4 8,0 NNW 15,0 1012,7 78 - 86
16:25 17,2 13,6 8,0 WNW 10,0 1012,8 79 - 127
16:30 17,2 13,6 8,0 NNW 8,0 1012,8 79 - 95
16:35 17,2 13,5 5,0 Norden 13,0 1012,8 79 - 64
16:40 16,9 13,4 10,0 Norden 13,0 1012,8 80 - 56
16:45 16,9 13,6 5,0 Norden 13,0 1012,7 81 - 53
16:50 16,8 13,7 5,0 Norden 8,0 1012,7 82 - 44
16:55 16,8 13,7 8,0 NNO 8,0 1012,7 82 - 44
17:00 16,7 13,6 5,0 NNO 8,0 1012,7 82 - 49
17:05 16,6 13,8 5,0 NNO 8,0 1012,8 84 - 51
17:10 16,5 13,8 8,0 NNO 8,0 1012,7 84 - 51
17:29 16,3 13,8 5,0 NNO 13,0 1012,7 86 - 100
17:34 16,3 14,2 10,0 NNO 13,0 1012,7 90 - 118
17:39 16,3 14,1 2,0 NNO 3,0 1012,5 87 - 109
17:44 16,3 14,2 4,0 NNO 2,0 1012,5 87 - 116
17:49 16,4 14,1 6,0 NNO 4,0 1012,5 86 - 114
17:54 16,4 14,1 4,0 NNO 5,0 1012,5 86 - 111
17:59 16,4 14,1 2,0 NNO 3,0 1012,5 86 - 113
18:04 16,6 14,2 4,0 NNO 3,0 1012,5 86 - 107
18:09 16,6 14,2 6,0 NNO 4,0 1012,4 86 - 107
18:14 16,4 14,1 4,0 NNO 5,0 1012,3 86 - 105
18:19 16,5 14,2 4,0 NNO 3,0 1012,2 86 - 95
18:24 16,3 14,0 4,0 NNO 3,0 1012,2 86 - 97
18:29 16,3 14,0 4,0 NNO 3,0 1012,1 86 - 91
18:34 16,3 14,1 5,0 NNO 3,0 1012,1 87 - 90
18:37 16,2 14,1 6,0 NNO 3,0 1012,1 87 - 83
18:59 16,0 14,0 6,0 NNO 5,0 1012,2 88 - 58
19:04 16,1 14,0 4,0 NNO 5,0 1012,2 88 - 58
19:09 16,0 14,0 4,0 NNO 3,0 1012,2 88 - 60
19:14 16,1 14,1 4,0 NNO 3,0 1012,1 88 - 62
19:19 16,0 14,0 4,0 NNO 3,0 1012,0 88 - 60
19:24 15,9 14,1 4,0 NNO 3,0 1012,0 89 - 56
19:29 15,9 14,1 4,0 NNO 3,0 1011,9 89 - 53
19:34 15,9 14,1 4,0 NNO 3,0 1012,0 89 - 54
19:39 15,9 14,1 4,0 NNO 2,0 1012,0 89 - 56
19:44 15,9 14,3 4,0 NNO 3,0 1012,0 90 - 62
19:49 16,0 14,2 4,0 NNO 3,0 1012,0 89 - 70
19:54 16,1 14,2 2,0 NNO 3,0 1012,0 89 - 84
19:59 16,2 14,2 4,0 NNO 2,0 1012,0 88 - 84
20:04 16,2 14,3 4,0 NNO 3,0 1012,1 89 - 86
20:09 16,2 14,2 4,0 NNO 1,0 1012,1 88 - 79
20:14 16,2 14,2 2,0 NNO 2,0 1012,2 88 - 72
20:19 16,2 14,3 2,0 NNO 2,0 1012,1 89 - 65
20:24 16,2 14,2   Windstille 2,0 1012,2 88 - 56
20:29 16,2 14,3   Windstille   1012,2 89 - 40
20:34 16,1 14,2 2,0 NNO 1,0 1012,1 89 - 35
20:39 15,9 14,3 2,0 NNO 2,0 1012,1 90 - 26
20:44 15,9 14,1   Windstille 2,0 1012,1 90 - 19
20:49 15,7 14,1 2,0 NNO 2,0 1012,1 90 - 12
20:54 15,6 14,0 4,0 NNO 2,0 1012,0 91 - 7
20:59 15,4 14,0 4,0 NNO 3,0 1012,1 91 - 7
21:04 15,2 13,8 4,0 NNO 3,0 1012,1 91 - 5
21:09 15,0 13,4 6,0 NNO 5,0 1012,1 90 - -
21:14 14,8 13,4 7,0 NW 5,0 1012,2 91 - -
21:19 14,8 13,3 7,0 WNW 8,0 1012,2 91 - -
21:24 14,8 13,3 7,0 WNW 8,0 1012,1 91 - -
21:29 14,7 13,3 6,0 WNW 5,0 1012,2 92 - -
21:30 14,4 13,1 2,0 WNW 5,0 1012,2 92 - -
21:39 14,3 13,0 4,0 NW 3,0 1012,3 92 - -

Download your copy of this data-set  here

Our weather-data as stored at Weather Underground. Script entwickelt von Jim McMurry. Angepasst für das Template von Leuven-Template.eu

Sie finden unser Wetter-Infos auch auf:

netzwerkwettercom

European Weather Network

WeatherCloud

Weather Underground

AWEKAS

Citizen Weather Observer Program (CWOP)

HAMweather, WeatherForYou, PWS Weather

Von uns verwendete Ausrüstung:

Wetterstation
Davis VP2

Wetterprogramm
Weather Display

Davis VP2

Weather Display